Simultaneous Nadir Overpasses (SNOs) Predictions

Prediction of SNOs between AQUA and GOES-15 Satellite Orbit:

Table of predicted SNOs for the next 14.0 days since TLE Epoch: 6/15/2012
Index Date Time (AQUA) AQUA Lat,Lon GOES-15 Lat,Lon Distance(km) Time Diff (sec)
1 06/16/2012 10:38:12 -0.05,-135.65 -0.15,-135.00 73.15 80
2 06/18/2012 10:25:58 -0.65,-132.68 -0.16,-134.93 255.68 80
3 06/18/2012 22:47:22 -0.43,-137.88 0.18,-134.93 334.77 80
4 06/20/2012 22:35:08 0.19,-134.91 0.18,-134.85 7.13 80
5 06/22/2012 22:22:53 0.77,-131.94 0.18,-134.77 321.40 80
6 06/23/2012 10:44:08 0.32,-137.10 -0.20,-134.73 269.68 80
7 06/25/2012 10:31:53 -0.28,-134.12 -0.20,-134.64 57.73 80
8 06/27/2012 10:19:38 -0.89,-131.15 -0.20,-134.54 384.42 80
9 06/27/2012 22:41:02 -0.16,-136.35 0.22,-134.53 207.23 80




NCC Satellite Simultaneous Nadir Overpasses (SNOs) Prediction Service
